Lake Hood, AK

6:44 AM AKDT on May 27, 2017 (GMT -0800)
Lake Hood

Weather History for PALH - October, 2012

Change the Weather History Date:

Friday, October 19, 2012

  Actual Average Record
Temperature  
Mean Temperature 30 °F -  
Max Temperature 37 °F 36 °F 55 °F (2013)
Min Temperature 23 °F 26 °F 3 °F (1996)
Degree Days  
Heating Degree Days 35    
Moisture  
Dew Point 17 °F    
Average Humidity 59    
Maximum Humidity 81    
Minimum Humidity 41    
Precipitation  
Precipitation 0.00 in - - ()
Sea Level Pressure  
Sea Level Pressure 29.96 in    
Wind  
Wind Speed 3 mph (ENE)    
Max Wind Speed 14 mph    
Max Gust Speed 23 mph    
Visibility 10 miles    
Events      
Averages and records for this station are not official NWS values.
T = Trace of Precipitation, MM = Missing Value Source: NWS Daily Summary

Daily Weather History Graph

Daily Weather History Graph

Search for Another Location

Airport or City:

Trip Planner

Search our weather history database for the weather conditions in past years. The results will help you decide how hot, cold, wet, or windy it might be!

Date:

Astronomy

Oct. 19, 2012 Rise Set
Actual Time 8:54 AM AKDT 6:33 PM AKDT
Civil Twilight 8:09 AM AKDT 7:18 PM AKDT
Nautical Twilight 7:19 AM AKDT 8:08 PM AKDT
Astronomical Twilight 6:29 AM AKDT 8:58 PM AKDT
Moon 2:52 PM AKDT (10/19) 9:20 PM AKDT (10/19)
Length of Visible Light 11h 08m
Length of Day
9h 39m
Waxing Crescent, 25% of the Moon is Illuminated
Oct 19
Waxing Crescent
Oct 21
First Quarter
Oct 29
Full
Nov 6
Last Quarter
Nov 13
New

Hourly Weather History & Observations

Time (AKDT) Temp. Windchill Dew Point Humidity Pressure Visibility Wind Dir Wind Speed Gust Speed Precip Events Conditions
12:53 AM 30.0 °F 25.2 °F 16.0 °F 56% 29.85 in 10.0 mi ENE 4.6 mph - N/A   Clear
1:53 AM 28.0 °F - 17.1 °F 63% 29.85 in 10.0 mi Calm Calm - N/A   Clear
2:53 AM 26.1 °F - 17.1 °F 69% 29.85 in 10.0 mi Calm Calm - N/A   Clear
3:53 AM 25.0 °F 20.7 °F 16.0 °F 69% 29.86 in 10.0 mi South 3.5 mph - N/A   Clear
4:53 AM 24.1 °F - 18.0 °F 77% 29.88 in 10.0 mi Calm Calm - N/A   Clear
5:53 AM 24.1 °F - 17.1 °F 75% 29.89 in 10.0 mi Calm Calm - N/A   Clear
6:53 AM 23.0 °F 18.4 °F 16.0 °F 74% 29.90 in 10.0 mi ESE 3.5 mph - N/A   Clear
7:53 AM 23.0 °F - 17.1 °F 78% 29.92 in 10.0 mi Calm Calm - N/A   Clear
8:53 AM 23.0 °F - 18.0 °F 81% 29.94 in 10.0 mi Calm Calm - N/A   Clear
9:53 AM 26.1 °F - 19.0 °F 75% 29.95 in 10.0 mi Calm Calm - N/A   Clear
10:53 AM 30.9 °F - 18.0 °F 59% 29.96 in 10.0 mi Calm Calm - N/A   Clear
11:53 AM 34.0 °F - 18.0 °F 52% 29.98 in 10.0 mi Calm Calm - N/A   Clear
12:53 PM 36.0 °F 32.1 °F 18.0 °F 48% 29.98 in 10.0 mi NE 4.6 mph - N/A   Clear
1:53 PM 36.0 °F - 16.0 °F 44% 29.98 in 10.0 mi Calm Calm - N/A   Clear
2:53 PM 37.9 °F - 16.0 °F 41% 29.99 in 10.0 mi Calm Calm - N/A   Clear
3:53 PM 36.0 °F 32.1 °F 19.9 °F 52% 29.99 in 9.0 mi South 4.6 mph - 0.00 in   Clear
4:53 PM 36.0 °F 30.3 °F 21.0 °F 55% 29.98 in 10.0 mi South 6.9 mph - N/A   Clear
5:53 PM 35.1 °F 31.0 °F 19.9 °F 54% 30.00 in 10.0 mi South 4.6 mph - N/A   Clear
6:53 PM 33.1 °F 30.0 °F 19.9 °F 59% 30.01 in 10.0 mi SSE 3.5 mph - N/A   Clear
7:53 PM 33.1 °F 30.0 °F 19.0 °F 56% 30.02 in 10.0 mi NNE 3.5 mph - N/A   Clear
8:53 PM 36.0 °F 27.1 °F 16.0 °F 44% 30.04 in 10.0 mi North 13.8 mph - N/A   Clear
9:53 PM 34.0 °F 25.0 °F 16.0 °F 48% 30.05 in 10.0 mi North 12.7 mph 23.0 mph N/A   Clear
10:53 PM 34.0 °F 24.6 °F 15.1 °F 46% 30.07 in 10.0 mi North 13.8 mph 23.0 mph N/A   Clear
11:53 PM 33.1 °F 23.9 °F 15.1 °F 48% 30.08 in 10.0 mi North 12.7 mph 19.6 mph N/A   Clear